Santa Fe

Airport
ICAO code: 
KSAF
Summary
ICAO Region: 
NAM
Territory: 
Location: 
Santa Fe, New Mexico,
Coordinates: 
Aerial View: 
35° 36' 59.271" N, 106° 5' 20.677" W
Airport RE: 
Hot and High Operations
Metar
Observation
KSAF 180953Z AUTO 30006KT 10SM CLR M01/M13 A3001 RMK AO2 SLP137 T10111133
Station
Santa Fe, Santa Fe County Municipal Airport
Date/Time
2022-01-18 09:53:00
Wind direction
300°
Wind speed
06 kts
Lowest cloud amount
n/a
Temperature
-1.1°C
Dew point
-13.3°C
Humidity
38%
Weather condition
n/a

Description

Santa Fe Municipal Airport is a public airport located 14 km southwest of the central business district (CBD) of Santa Fe, a city in Santa Fe County, New Mexico.

Climatology

A semi-arid steppe climate (Köppen climate classification BSk), with generally cold, dry winters and hot summers. Late spring and early summer is on average the wettest period of the year.

Runways

Designator Length Width Surface Rops
10/28 1920 23 ASP Yes/Yes
15/33 1922 46 ASP Yes/Yes
2/20 2543 46 ASP Yes/Yes
Airport map: 
Aerial View: 

SKYbrary Partners:

Safety knowledge contributed by: